Terug naar catalogus

IRIDE-MS1-EAG2-10

ActiefMilitairSSO
NORAD 68451·PAYLOAD·🇮🇹 Italy

Gelanceerd Mar 30, 2026 vanaf Vandenberg Space Force Base

Loading…

Volgende Passages (komende 24 uur)

TLE

VersSource: Space-Track

Epoch: Sep 14, 2026, 08:40 UTC

1 68451U 26067AM  26257.36139952  .00006210  00000-0  29232-3 0  9995
2 68451  97.4601 214.6877 0003646  80.8685 279.2963 15.19895478 25486

Volg IRIDE-MS1-EAG2-10 in realtime met AllMySat

Download on the App Store